Location: Newark
(34.6283°N, 36.0776°E)
Time: 21:07:34
(UTC+00:00)

Tiros 1 despin weight - Pass Details

Date: 25 September 2019
Orbit: 593 x 643 km, 48.2° (Epoch: 20 October)

Event Time Altitude Azimuth Distance (km) Brightness Sun altitude
Rises 12:06:33 0° 312° (NW) 2,869 ? 38.6°
Reaches altitude 10° 12:09:28 10° 331° (NNW) 1,954 ? 38.1°
Maximum altitude 12:12:38 19° 16° (NNE) 1,462 ? 37.6°
Drops below altitude 10° 12:15:47 10° 61° (ENE) 1,934 ? 37.0°
Sets 12:18:39 0° 80° (E) 2,828 ? 36.5°
